Track STARLINK-3119 now! 10-day predictions STARLINK-3119 is classified as:
1 49145U 21082R 22223.76857646 .00000861 00000-0 83270-4 0 9995 2 49145 69.9974 306.7884 0003217 253.4927 106.5878 14.96709023 51350